ISS DEB (52149 NORAD) Tracking and Keplerian Element Data

This shows tracking and keplerian element data for the satellite.

Feedback or suggestion? Click here.




ElementValue
Catalog52149
NameISS DEB
Epoch Orbit62
Epoch Day87.84009897
Epoch Year2022
RAAN14.5209
Inclination51.6428
Eccentricity0.0003365
Argument of Perigee304.2199
Mean Anonmoly55.8471
Mean Motion15.50790771
Decay Rate0.00123749
L11 52149U 98067TL 22087.84009897 .00123749 00000+0 20830-2 0 9995
L22 52149 51.6428 14.5209 0003365 304.2199 55.8471 15.50790771 625



Live tracking and technical data element details for ISS DEB (NORAD 52149). ISS DEB can be tracked NOW for your location showing map with azimuth and elevation plus other details from your city location.







IsCatalogInMostPopularTable: catalog: 52149, numindb: 164
Update: records affected: 1



GetName: 52149 ISS DEB

Hit Count: updated at: Fri, 06 Dec 2024 10:35:08 GMT